#timestamp,LO_Frequency,Hit,StdDev 
1666468815.6,286046997.2,N
1666468835.4,286046998.7,N
1666468855.3,286046998.9,N
1666468875.1,286046998.3,N
1666468895.9,286047002.8,N
1666468915.7,286046999.8,N
1666468935.5,286046999.7,N
1666468955.4,286047000.5,N
1666468975.2,286046998.9,N
1666468995.0,286046998.3,N
1666468995.9,286046998.3,N
1666469015.8,286046998.8,N
1666469035.6,286047001.0,N
1666469055.5,286046998.2,N
1666469075.3,286047002.6,N
1666469095.1,286047000.2,N
1666469115.9,286047000.5,N
1666469135.7,286046999.9,N
1666469155.6,286046999.3,N
1666469175.4,286047001.0,N
1666469195.2,286047001.1,N
1666469215.1,286046999.7,N
1666469216.0,286046999.7,N
1666469235.8,286047001.6,N
1666469255.7,286047004.2,Y
1666469275.5,286047001.4,P
1666469295.3,286047002.1,N
1666469315.2,286047002.0,N
1666469335.0,286046999.9,N
1666469335.9,286046999.9,N
1666469355.8,286046999.3,N
1666469375.6,286046997.5,N
1666469395.4,286046999.6,N
1666469415.3,286047000.8,N
1666469435.1,286047002.1,N
1666469455.8,286047000.9,N
1666469475.7,286047001.1,N
1666469495.5,286047000.9,N
1666469515.4,286047000.9,N
1666469535.2,286047000.7,N
1666469555.0,286047000.6,N
1666469555.9,286047000.6,N
1666469575.8,286047000.2,N
1666469595.6,286047001.6,N
1666469615.4,286047002.5,N
1666469635.3,286047004.3,Y
1666469655.1,286047001.4,P
1666469675.9,286047004.1,P
1666469695.7,286047003.5,N
1666469715.6,286047003.1,N
1666469735.4,286047005.7,Y
1666469755.2,286047001.2,P
1666469775.1,286046996.8,P
1666469776.0,286046996.8,N
1666469795.8,286046996.9,N
1666469815.6,286047000.8,N
1666469835.5,286046999.7,N
1666469855.3,286046998.3,N
1666469875.2,286046999.1,N
1666469895.9,286046996.7,N
1666469915.7,286046999.0,N
1666469935.6,286046997.0,N
1666469955.4,286046999.5,N
1666469975.2,286046999.1,N
1666469995.1,286046999.0,N
1666469996.0,286046999.0,N
1666470015.8,286046998.1,N
1666470035.7,286046999.0,N
1666470055.5,286046997.9,N
1666470075.3,286046997.7,N
1666470095.2,286046997.3,N
1666470115.0,286046998.1,N
1666470115.9,286046998.1,N
1666470135.7,286046998.7,N
1666470155.6,286046996.6,N
1666470175.4,286046999.2,N
1666470195.3,286046996.9,N
1666470215.1,286047001.1,N
1666470216.0,286047001.1,N
1666470235.8,286047001.2,N
1666470255.7,286046996.6,N
1666470275.5,286046996.9,N
1666470295.4,286046997.7,N
1666470315.2,286046997.6,N
1666470335.0,286046997.6,N
1666470335.9,286046997.6,N
1666470355.8,286046996.6,N
1666470375.6,286047000.8,N
1666470395.4,286046998.2,N
1666470415.3,286046999.6,N
1666470435.1,286046998.4,N
1666470455.9,286046999.1,N
1666470475.7,286046999.1,N
1666470495.5,286046998.3,N
1666470515.4,286046996.5,N
1666470535.2,286046998.0,N
1666470555.1,286046996.0,N
1666470556.0,286046996.0,N
1666470575.8,286046997.3,N
1666470595.6,286046997.7,N
1666470615.5,286046997.6,N
1666470635.3,286046999.3,N
1666470655.1,286046997.4,N
1666470675.9,286046998.7,N
1666470695.7,286047000.1,N
1666470715.6,286047002.0,N
1666470735.4,286047004.3,N
1666470755.2,286047001.3,N
1666470775.1,286047004.3,N
1666470776.0,286047004.3,N
1666470795.8,286047003.6,N
1666470815.7,286047003.2,N
1666470835.5,286047006.0,N
1666470855.3,286047003.0,N
1666470875.2,286047005.8,N
1666470895.9,286047005.2,N
1666470915.7,286047003.2,N
1666470935.6,286047005.9,N
1666470955.4,286047003.7,N
1666470975.2,286047004.2,N
1666470995.1,286047003.8,N
1666470996.0,286047003.8,N
1666471015.8,286047003.5,N
1666471035.7,286047003.6,N
1666471055.5,286047003.5,N
1666471075.3,286047004.1,N
1666471095.2,286047004.1,N
1666471115.0,286047003.7,N
1666471115.9,286047003.7,N
1666471135.8,286047002.9,N
1666471155.6,286047005.4,N
1666471175.4,286047003.1,N
1666471195.3,286047003.3,N
1666471215.1,286047003.5,N
1666471235.8,286047003.6,N
1666471255.7,286047004.1,Y
1666471275.5,286046998.2,P
1666471295.4,286046999.3,N
1666471315.2,286046999.1,N
1666471335.0,286046999.3,N
1666471335.9,286046999.3,N
1666471355.8,286046998.8,N
1666471375.6,286046999.0,N
1666471395.4,286046999.0,N
1666471415.3,286046999.3,N
1666471435.1,286046996.5,N
1666471455.9,286046997.3,N
1666471475.7,286046997.4,N
1666471495.5,286046997.9,N
1666471515.4,286046995.0,Y
1666471535.2,286046996.8,P
1666471555.0,286046994.9,P
1666471556.0,286046994.9,P
1666471575.8,286046995.2,N
1666471595.6,286046996.2,N
1666471615.5,286046993.3,Y
1666471635.3,286046999.4,P
1666471655.1,286046998.9,N
1666471675.9,286046998.7,N
1666471695.7,286046999.0,N
1666471715.6,286046996.5,Y
1666471735.4,286047001.0,P
1666471755.2,286047000.9,N
1666471775.1,286047000.9,N
1666471776.0,286047000.9,N
1666471795.8,286047000.9,N
1666471815.6,286047000.7,N
1666471835.5,286046999.0,N
1666471855.3,286046999.2,N
1666471875.2,286046996.9,Y
1666471895.9,286046996.9,P
1666471915.7,286046997.5,N
1666471935.6,286046995.3,P
1666471955.4,286046995.0,N
1666471975.2,286046995.1,N
1666471995.1,286046996.0,N
1666471996.0,286046996.0,N
1666472015.8,286046993.6,Y
1666472035.7,286046996.8,P
1666472055.5,286046996.6,P
1666472075.3,286046999.4,P
1666472095.2,286046997.2,N
1666472115.0,286046996.6,Y
1666472115.9,286046996.6,P
1666472135.8,286047000.8,N
1666472155.6,286046998.2,N
1666472175.4,286047000.6,N
1666472195.3,286047000.3,N
1666472215.1,286047001.9,N
1666472235.8,286047001.1,N
1666472255.7,286046999.3,N
1666472275.5,286046998.7,N
1666472295.4,286046998.2,N
1666472315.2,286046998.2,N
1666472335.0,286046998.1,N
1666472335.9,286046998.1,N
1666472355.8,286046998.6,N
1666472375.6,286046998.6,N
1666472395.4,286046998.3,N
